World > North America > United States > Utah > Pine Canyon

Hourly Pine Canyon, UT Regional Weather

Feedback E-mail the Weather

Quick WX

Pine Canyon, UT Weather Maps

°F °C°F °C
Pine Canyon Weather Map
UTC Time: 8/12/2022, 21:41
Your Time:

Pine Canyon, UT Regional Weather

Expires:202208122200;;988715
ASUS45 KSLC 122110
RWRUT 

UTAH REGIONAL WEATHER ROUNDUP
NATIONAL WEATHER SERVICE SALT LAKE CITY UT
300 PM MDT FRI AUG 12 2022


UTZ101>105-107>111-122200-

NORTHERN UTAH
  
CITY           SKY/WX    TMP DP  RH WIND       PRES   REMARKS
BRIGHAM CITY   SUNNY     85  49  27 MISG      30.14F                  
HILL AFB       NOT AVBL                                               
LOGAN          SUNNY     86  55  34 SW8       30.13F                  
OGDEN          SUNNY     92  53  26 NW7       30.13F                  
SALT LAKE CITY MOSUNNY   93  55  27 CALM      30.10F HX  91           
TOOELE VALLEY  MOSUNNY   88  61  40 NE12      30.12F                  
WENDOVER       MOSUNNY   89  57  33 E8        30.12F                  
HEBER CITY     LGT RAIN  70  54  56 E26G44    30.22R                  
WEST JORDAN    MOSUNNY   88  61  40 E6        30.14F                  

$$


SKY/WX - Weather  TMP - Temperature  DP - Dew Point  RH - Humidity
WIND - Wind Direction/Speed PRES - Barometric Pressure VSB - Visibility
WCI - Wind Chill Index E13G22 Wind - East Wind 13 mph/Gusts of 22 mph

Trending Headlines

Pine Canyon Radar Loop



Pine Canyon Quick Facts


National Two Day Weather Forecast


E-mail the Pine Canyon Weather Forecast

Voice your opinion or tell us about page issues...